FW6128 Weather Reports


Display with metric or nautical units.
time (UTC)temp
F
wind
direction
speed
MPH
gust
MPH
rain 1hr
in
rain 24hr
in
rain mn
in
humidity
%
barometer
mb
20260508004052 53 203 10.0 17.0 0.00 0.00 0.37 75 1006.8
20260508003549 53 225 9.0 22.0 0.00 0.00 0.37 75 1006.7
20260508003032 53 225 12.0 23.0 0.00 0.00 0.37 75 1006.7
20260508002522 53 225 14.0 23.0 0.00 0.00 0.37 75 1006.6
20260508002011 53 225 11.0 20.0 0.00 0.00 0.37 74 1006.6
20260508001502 53 203 9.0 22.0 0.00 0.00 0.37 74 1006.7
20260508000951 53 203 11.0 24.0 0.00 0.00 0.37 74 1006.7
20260508000442 54 203 9.0 24.0 0.00 0.00 0.37 74 1006.7
20260507235932 54 225 15.0 24.0 0.00 0.00 0.37 73 1006.6
20260507234910 54 203 13.0 27.0 0.00 0.00 0.37 74 1006.5
20260507234400 54 225 17.0 27.0 0.00 0.00 0.37 74 1006.4
20260507233850 54 203 15.0 34.0 0.00 0.00 0.37 72 1006.4
20260507233342 55 203 17.0 34.0 0.00 0.00 0.37 72 1006.5
20260507232830 55 203 20.0 34.0 0.00 0.00 0.37 72 1006.6
20260507232320 55 203 25.0 39.0 0.00 0.00 0.37 72 1006.5
20260507231300 55 225 22.0 27.0 0.00 0.00 0.37 72 1006.4
20260507230751 55 225 11.0 25.0 0.00 0.00 0.37 72 1006.4
20260507230239 55 203 13.0 24.0 0.00 0.00 0.37 72 1006.4
20260507225729 55 203 13.0 24.0 0.00 0.00 0.37 72 1006.3
20260507225219 55 203 15.0 24.0 0.00 0.00 0.37 72 1006.2
20260507224709 56 225 15.0 27.0 0.00 0.00 0.37 71 1006.0
20260507224159 56 203 11.0 27.0 0.00 0.00 0.37 71 1005.8
20260507223648 56 203 11.0 25.0 0.00 0.00 0.37 71 1005.6
20260507222628 56 203 11.0 25.0 0.00 0.00 0.37 70 1005.4
20260507222119 56 225 20.0 25.0 0.00 0.00 0.37 69 1005.1
20260507221058 56 203 8.0 22.0 0.00 0.00 0.37 70 1004.8
20260507220547 56 225 13.0 27.0 0.00 0.00 0.37 69 1004.7
20260507220038 56 225 14.0 27.0 0.00 0.00 0.37 69 1004.8
20260507215528 56 225 16.0 22.0 0.00 0.00 0.37 69 1004.6
20260507215018 56 225 11.0 20.0 0.00 0.00 0.37 69 1004.5
20260507214511 56 203 11.0 23.0 0.00 0.00 0.37 69 1004.3
20260507213957 56 225 11.0 23.0 0.00 0.00 0.37 69 1004.2
20260507213447 57 225 17.0 25.0 0.00 0.00 0.37 67 1003.8
20260507212936 57 225 14.0 25.0 0.00 0.00 0.37 67 1003.8
20260507212427 57 203 14.0 22.0 0.00 0.00 0.37 68 1003.7
20260507211916 57 203 17.0 24.0 0.00 0.00 0.37 68 1004.2
20260507211406 57 225 13.0 27.0 0.00 0.00 0.37 68 1004.4
20260507210856 57 225 15.0 27.0 0.00 0.00 0.37 68 1004.4
20260507210346 57 203 11.0 27.0 0.00 0.00 0.37 69 1004.3
20260507205835 57 293 21.0 27.0 0.00 0.00 0.37 67 1004.4
20260507205328 57 225 11.0 27.0 0.00 0.00 0.37 68 1004.5
20260507204816 57 203 15.0 27.0 0.00 0.00 0.37 69 1004.5
20260507204305 57 180 20.0 27.0 0.00 0.00 0.37 67 1004.4
20260507203756 57 158 12.0 23.0 0.00 0.00 0.37 69 1004.5
20260507203245 57 203 11.0 27.0 0.00 0.00 0.37 70 1004.6
20260507202743 57 225 13.0 30.0 0.00 0.00 0.37 69 1004.6
20260507201714 57 248 17.0 29.0 0.00 0.00 0.37 70 1004.6
20260507201204 57 248 17.0 27.0 0.00 0.00 0.37 71 1004.5
20260507195124 57 225 22.0 32.0 0.00 0.00 0.37 71 1003.7
20260507194615 57 225 24.0 32.0 0.00 0.00 0.37 70 1003.6
20260507194103 58 203 20.0 32.0 0.00 0.00 0.37 70 1003.6
20260507193554 58 225 21.0 34.0 0.00 0.00 0.37 70 1003.5
20260507193044 58 225 21.0 40.0 0.00 0.00 0.37 70 1003.3
20260507192534 58 225 31.0 40.0 0.00 0.00 0.37 69 1003.1
20260507192024 58 203 34.0 40.0 0.00 0.00 0.37 69 1002.7
20260507185432 58 203 23.0 32.0 0.00 0.00 0.37 69 1003.0
20260507184921 58 225 23.0 30.0 0.00 0.00 0.37 69 1002.8
20260507183902 58 225 27.0 31.0 0.00 0.00 0.37 68 1003.2
20260507183351 58 225 21.0 31.0 0.00 0.00 0.37 67 1003.5
20260507182842 58 203 25.0 34.0 0.00 0.00 0.37 67 1003.4
20260507182331 58 225 26.0 36.0 0.00 0.00 0.37 67 1003.7
20260507181817 59 135 25.0 36.0 0.00 0.00 0.37 66 1004.1
20260507181309 59 203 22.0 30.0 0.00 0.00 0.37 67 1004.2
20260507180802 59 203 21.0 32.0 0.00 0.00 0.37 66 1004.4
20260507180251 59 203 20.0 32.0 0.00 0.00 0.37 65 1004.4
20260507175740 59 203 23.0 32.0 0.00 0.00 0.37 65 1004.3
20260507174720 59 248 20.0 34.0 0.00 0.00 0.37 65 1004.5
20260507174210 59 248 24.0 31.0 0.00 0.00 0.37 65 1004.5
20260507173705 59 225 23.0 32.0 0.00 0.00 0.37 65 1004.6
20260507173150 59 248 23.0 34.0 0.00 0.00 0.37 64 1004.5
20260507172639 59 248 23.0 34.0 0.00 0.00 0.37 65 1004.4
20260507172130 59 248 22.0 30.0 0.00 0.00 0.37 65 1004.6
20260507171620 59 203 19.0 27.0 0.00 0.00 0.37 66 1004.5
20260507171113 59 225 20.0 32.0 0.00 0.00 0.37 66 1004.5
20260507170559 59 293 16.0 32.0 0.00 0.00 0.37 66 1004.5
20260507170049 59 225 19.0 43.0 0.00 0.00 0.37 67 1004.5
20260507165538 58 225 23.0 43.0 0.00 0.00 0.37 66 1004.7
20260507165029 59 225 23.0 34.0 0.00 0.00 0.37 67 1004.6
20260507164518 59 203 21.0 34.0 0.00 0.00 0.37 66 1004.4
20260507164008 59 225 17.0 29.0 0.00 0.00 0.37 66 1004.5
20260507163459 58 225 25.0 29.0 0.00 0.00 0.37 66 1004.4
20260507162948 58 248 20.0 29.0 0.00 0.00 0.37 66 1004.5
20260507162437 59 248 20.0 29.0 0.00 0.00 0.37 67 1004.6
20260507161418 58 248 23.0 27.0 0.00 0.00 0.37 66 1004.8
20260507160908 58 248 15.0 27.0 0.00 0.00 0.37 67 1004.8
20260507155847 58 225 19.0 25.0 0.00 0.00 0.37 67 1004.7
20260507155336 58 248 15.0 27.0 0.00 0.00 0.37 67 1005.1
20260507154826 57 248 16.0 27.0 0.00 0.00 0.37 68 1005.3
20260507154317 57 248 14.0 27.0 0.00 0.00 0.37 69 1005.2
20260507153806 57 293 20.0 27.0 0.00 0.00 0.37 69 1005.2
20260507153257 57 225 16.0 22.0 0.00 0.00 0.37 70 1005.3
20260507152747 57 225 17.0 25.0 0.00 0.00 0.37 70 1005.2
20260507152236 56 225 21.0 25.0 0.00 0.00 0.37 69 1005.1
20260507151726 56 225 17.0 27.0 0.00 0.00 0.37 69 1004.9
20260507151217 57 225 15.0 27.0 0.00 0.00 0.37 71 1004.8
20260507150156 56 203 17.0 24.0 0.00 0.00 0.37 70 1004.8
20260507145645 57 248 16.0 23.0 0.00 0.00 0.37 70 1005.1
20260507145136 57 225 17.0 23.0 0.00 0.00 0.37 71 1005.0
20260507144115 56 225 15.0 24.0 0.00 0.00 0.37 72 1004.7
20260507143605 56 203 20.0 24.0 0.00 0.00 0.37 70 1004.9
20260507143055 56 225 13.0 21.0 0.00 0.00 0.37 72 1005.0
20260507142545 56 225 12.0 20.0 0.00 0.00 0.37 73 1004.9
20260507142034 56 203 8.0 18.0 0.00 0.00 0.37 73 1004.9
20260507141524 56 225 11.0 18.0 0.00 0.00 0.37 73 1005.0
20260507141015 56 225 13.0 17.0 0.00 0.00 0.37 72 1005.2
20260507140504 56 248 10.0 17.0 0.00 0.00 0.37 73 1005.1
20260507140000 56 225 4.0 16.0 0.00 0.00 0.37 73 1005.2
20260507135448 56 225 8.0 17.0 0.00 0.00 0.37 73 1005.0
20260507134933 56 248 8.0 17.0 0.00 0.00 0.37 73 1005.1
20260507134423 56 225 15.0 20.0 0.00 0.00 0.37 72 1004.9
20260507133404 56 248 13.0 21.0 0.00 0.00 0.37 73 1004.8
20260507132855 56 225 14.0 21.0 0.00 0.00 0.37 73 1004.6
20260507131832 56 293 10.0 22.0 0.00 0.00 0.37 73 1005.0
20260507131322 56 225 14.0 22.0 0.00 0.00 0.37 72 1004.7
20260507130812 56 225 17.0 21.0 0.00 0.00 0.37 74 1004.3
20260507125752 56 203 15.0 21.0 0.00 0.00 0.37 73 1004.2
20260507125241 56 225 11.0 29.0 0.00 0.00 0.37 75 1004.0
20260507124731 56 225 19.0 29.0 0.00 0.00 0.37 74 1003.8
20260507124222 56 225 21.0 24.0 0.00 0.00 0.37 75 1003.7
20260507123201 56 225 10.0 23.0 0.00 0.00 0.37 77 1003.3
20260507122651 56 225 11.0 25.0 0.00 0.00 0.37 77 1003.3
20260507122141 56 203 17.0 25.0 0.00 0.00 0.37 78 1003.1
20260507121631 56 225 20.0 25.0 0.00 0.00 0.37 78 1003.4
20260507121121 56 225 19.0 24.0 0.00 0.00 0.37 77 1002.8
20260507115552 56 338 16.0 25.0 0.00 0.00 0.37 77 1002.5
20260507115040 56 158 13.0 23.0 0.00 0.00 0.37 77 1002.4
20260507114530 56 203 10.0 29.0 0.00 0.00 0.37 77 1002.1
20260507113510 56 203 21.0 34.0 0.00 0.00 0.37 76 1002.0
20260507112959 56 180 23.0 34.0 0.00 0.00 0.37 77 1002.1
20260507112449 56 180 20.0 34.0 0.00 0.00 0.37 77 1001.9
20260507111430 56 203 22.0 31.0 0.00 0.00 0.37 78 1001.3
20260507110919 57 225 23.0 30.0 0.00 0.00 0.37 79 1001.7
20260507110408 56 225 16.0 27.0 0.00 0.00 0.37 79 1002.0
20260507105858 57 203 18.0 27.0 0.00 0.00 0.37 79 1002.2
20260507105348 57 203 12.0 27.0 0.00 0.00 0.37 78 1002.3
20260507104838 57 203 12.0 32.0 0.00 0.00 0.37 78 1002.5
20260507104328 58 270 13.0 32.0 0.00 0.00 0.37 75 1002.7
20260507103818 58 225 11.0 27.0 0.00 0.00 0.37 77 1002.4
20260507103307 58 203 14.0 27.0 0.00 0.00 0.37 77 1002.6
20260507102758 58 180 17.0 27.0 0.00 0.00 0.37 78 1002.6
20260507102247 58 225 17.0 27.0 0.00 0.00 0.37 78 1002.9
20260507101737 58 225 14.0 27.0 0.00 0.00 0.37 81 1002.7
20260507101228 59 180 16.0 25.0 0.00 0.00 0.37 82 1002.8
20260507100717 59 203 10.0 25.0 0.00 0.00 0.37 81 1003.3
20260507095147 60 203 11.0 24.0 0.00 0.00 0.37 85 1003.3
20260507094640 60 180 12.0 27.0 0.00 0.00 0.37 85 1003.2
20260507094126 60 203 17.0 27.0 0.00 0.00 0.37 88 1003.3
20260507093106 61 225 10.0 17.0 0.00 0.00 0.37 93 1003.3
20260507092556 62 203 12.0 18.0 0.00 0.00 0.37 93 1003.3
20260507092046 62 225 7.0 18.0 0.00 0.00 0.37 93 1003.2
20260507091536 62 203 10.0 20.0 0.00 0.00 0.37 93 1003.2
20260507091026 62 203 12.0 20.0 0.00 0.00 0.37 94 1004.2
20260507090515 62 225 10.0 21.0 0.00 0.00 0.37 94 1004.2
20260507090006 62 225 12.0 25.0 0.00 0.00 0.37 94 1003.7
20260507084435 62 225 16.0 22.0 0.00 0.00 0.37 94 1002.4
20260507083414 62 225 14.0 22.0 0.00 0.00 0.37 94 1002.4
20260507082904 62 203 11.0 24.0 0.00 0.00 0.37 93 1002.2
20260507082354 62 225 13.0 27.0 0.00 0.00 0.37 93 1002.1
20260507081854 62 203 17.0 27.0 0.00 0.00 0.37 93 1002.4
20260507080823 62 180 17.0 25.0 0.00 0.00 0.37 93 1002.0
20260507080314 62 225 15.0 24.0 0.00 0.00 0.37 93 1002.3
20260507075803 62 135 16.0 24.0 0.00 0.00 0.37 93 1002.3
20260507075254 62 225 12.0 23.0 0.00 0.00 0.37 93 1001.9
20260507074743 63 203 13.0 23.0 0.00 0.00 0.37 93 1001.9
20260507073723 63 225 7.0 14.0 0.00 0.00 0.37 93 1002.5
20260507073212 63 225 4.0 14.0 0.00 0.00 0.37 93 1002.4
20260507072152 63 203 2.0 11.0 0.00 0.00 0.37 93 1003.0
20260507071641 63 225 6.0 11.0 0.00 0.00 0.37 93 1002.9
20260507071132 63 203 5.0 9.0 0.00 0.00 0.37 93 1002.8
20260507070622 63 225 4.0 8.0 0.00 0.00 0.37 94 1002.7
20260507070112 63 203 4.0 8.0 0.00 0.00 0.37 94 1003.1
20260507065601 63 180 5.0 8.0 0.00 0.00 0.37 94 1003.2
20260507064541 64 203 4.0 7.0 0.00 0.00 0.37 94 1002.7
20260507064031 64 203 5.0 7.0 0.00 0.00 0.37 94 1002.7
20260507063521 64 203 4.0 8.0 0.00 0.00 0.37 94 1002.1
20260507063011 64 203 4.0 13.0 0.00 0.00 0.37 94 1001.8
20260507062501 64 203 4.0 13.0 0.00 0.00 0.37 94 1001.3
20260507061951 64 203 4.0 11.0 0.00 0.00 0.37 94 1001.0
20260507061443 64 180 4.0 9.0 0.00 0.00 0.37 94 1001.1
20260507060930 64 135 5.0 8.0 0.00 0.00 0.37 94 1001.7
20260507060422 64 158 4.0 0.0 0.00 0.00 0.37 94 1002.3
20260507060208 64 158 4.0 0.0 0.00 0.00 0.37 94 1002.3
20260507055608 64 203 4.0 7.0 0.02 0.38 0.37 94 1001.9
20260507054546 64 158 4.0 8.0 0.02 0.38 0.37 93 1002.0
20260507054038 64 158 2.0 7.0 0.04 0.38 0.37 93 1001.8
20260507053528 65 158 2.0 6.0 0.04 0.38 0.37 93 1002.1
20260507053016 65 90 1.0 6.0 0.04 0.38 0.37 93 1001.7
20260507052506 65 90 2.0 7.0 0.06 0.38 0.37 93 1001.4
20260507051956 65 248 2.0 11.0 0.06 0.38 0.37 93 1000.9
20260507051446 65 225 2.0 17.0 0.06 0.38 0.37 93 1000.0
20260507050936 65 248 3.0 18.0 0.06 0.38 0.37 93 998.8
20260507050425 65 203 10.0 18.0 0.06 0.38 0.37 92 998.8
20260507045916 65 203 8.0 21.0 0.04 0.35 0.35 93 998.7
20260507045405 65 293 4.0 22.0 0.04 0.35 0.34 93 999.3
20260507044344 65 203 12.0 25.0 0.04 0.35 0.34 92 998.2
20260507043324 66 180 17.0 36.0 0.06 0.34 0.33 92 1000.3
20260507042814 66 158 21.0 40.0 0.22 0.33 0.32 91 1000.1
20260507042306 66 225 30.0 55.0 0.30 0.32 0.31 89 999.7
20260507041758 67 248 35.0 55.0 0.31 0.32 0.31 86 998.5
20260507041247 65 270 30.0 45.0 0.31 0.32 0.31 96 998.4
20260507040733 65 315 19.0 27.0 0.31 0.32 0.31 96 998.6
20260507040224 65 248 4.0 11.0 0.31 0.32 0.31 95 999.2
20260507035713 65 293 4.0 13.0 0.31 0.32 0.31 94 998.9
20260507035204 64 270 2.0 13.0 0.31 0.32 0.31 94 998.8
20260507034144 65 180 3.0 23.0 0.31 0.32 0.31 95 997.6
20260507033123 68 293 13.0 24.0 0.25 0.26 0.25 95 999.1
20260507032613 69 270 16.0 23.0 0.02 0.04 0.05 95 1001.2
20260507032103 70 203 10.0 20.0 0.00 0.01 0.00 94 999.2
20260507031553 71 203 5.0 17.0 0.00 0.01 0.00 94 998.8
20260507031042 71 180 9.0 17.0 0.00 0.01 0.00 92 998.7
20260507030536 72 203 5.0 16.0 0.00 0.01 0.00 92 998.0
20260507030022 72 225 4.0 11.0 0.00 0.01 0.00 90 998.8
20260507025512 73 315 6.0 11.0 0.00 0.01 0.01 88 998.5
20260507025001 74 180 4.0 14.0 0.00 0.01 0.01 87 998.7
20260507024457 74 135 2.0 14.0 0.00 0.01 0.01 87 998.8
20260507023942 74 203 4.0 14.0 0.00 0.01 0.01 87 999.0
20260507023431 74 225 4.0 14.0 0.00 0.01 0.01 87 999.5
20260507022411 74 225 2.0 11.0 0.00 0.01 0.01 88 999.8
20260507021900 73 293 3.0 8.0 0.00 0.01 0.01 91 999.7
20260507021351 72 293 2.0 6.0 0.00 0.01 0.01 92 999.9
20260507020855 72 270 2.0 4.0 0.00 0.01 0.01 91 1000.0
20260507020330 72 315 2.0 6.0 0.00 0.01 0.01 91 999.6
20260507015820 73 293 4.0 6.0 0.00 0.01 0.01 90 999.7
20260507015310 73 293 4.0 6.0 0.00 0.01 0.01 90 999.6
20260507014801 73 270 3.0 8.0 0.00 0.01 0.01 90 999.7
20260507014250 73 293 4.0 8.0 0.00 0.01 0.01 90 999.8
20260507013739 73 315 4.0 7.0 0.00 0.01 0.01 90 999.8
20260507013229 73 315 3.0 7.0 0.00 0.01 0.01 90 999.8
20260507012720 74 293 4.0 6.0 0.00 0.01 0.01 89 999.6
20260507012209 74 338 4.0 6.0 0.00 0.01 0.01 89 999.4
20260507011658 74 293 4.0 6.0 0.00 0.01 0.01 88 999.4
20260507011148 74 315 3.0 7.0 0.00 0.01 0.01 88 999.3
20260507010640 75 293 4.0 8.0 0.00 0.01 0.01 87 999.3
20260507005108 76 315 3.0 11.0 0.00 0.01 0.01 85 999.2
20260507004559 76 293 4.0 13.0 0.00 0.01 0.01 84 999.4